TimeEST,TemperatureF,Dew PointF,Humidity,Sea Level PressureIn,VisibilityMPH,Wind Direction,Wind SpeedMPH,Gust SpeedMPH,PrecipitationIn,Events,Conditions,WindDirDegrees,DateUTC
12:38 AM,39.2,37.4,93,29.98,0.8,Calm,Calm,-,N/A,,Overcast,0,2003-01-29 05:38:00
12:53 AM,37.9,37.9,100,30.00,0.5,Calm,Calm,-,N/A,Fog,Fog,0,2003-01-29 05:53:00
1:09 AM,37.4,37.4,100,29.98,0.2,Calm,Calm,-,N/A,Fog,Fog,0,2003-01-29 06:09:00
1:53 AM,37.9,37.9,100,30.01,0.2,Calm,Calm,-,N/A,Fog,Fog,0,2003-01-29 06:53:00
2:53 AM,39.0,39.0,100,30.01,0.2,NW,6.9,-,0.00,Fog,Fog,310,2003-01-29 07:53:00
3:06 AM,37.4,37.4,100,30.00,0.8,North,12.7,-,0.00,Rain,Light Rain,360,2003-01-29 08:06:00
3:14 AM,35.6,35.6,100,30.00,1.2,North,9.2,-,0.00,,Overcast,350,2003-01-29 08:14:00
3:24 AM,35.6,35.6,100,30.00,1.5,North,11.5,-,0.01,,Overcast,360,2003-01-29 08:24:00
3:53 AM,34.0,34.0,100,30.02,1.5,North,11.5,-,0.01,,Overcast,360,2003-01-29 08:53:00
4:03 AM,33.8,33.8,100,30.00,2.0,North,9.2,-,N/A,,Overcast,360,2003-01-29 09:03:00
4:31 AM,33.8,33.8,100,30.02,2.5,North,6.9,-,0.00,,Overcast,360,2003-01-29 09:31:00
4:53 AM,33.1,33.1,100,30.04,2.5,North,9.2,-,0.00,Snow,Light Snow,360,2003-01-29 09:53:00
5:08 AM,33.8,32.0,93,30.03,1.8,North,8.1,-,0.01,Snow,Light Snow,360,2003-01-29 10:08:00
5:32 AM,33.8,32.0,93,30.04,2.0,North,9.2,-,0.01,,Overcast,360,2003-01-29 10:32:00
5:45 AM,33.8,32.0,93,30.05,1.5,North,9.2,-,0.01,Snow,Light Snow,360,2003-01-29 10:45:00
5:53 AM,32.0,32.0,100,30.07,1.5,North,9.2,-,0.01,Snow,Light Snow,360,2003-01-29 10:53:00
6:06 AM,32.0,30.2,93,30.06,2.5,North,11.5,-,0.00,Snow,Light Snow,10,2003-01-29 11:06:00
6:14 AM,32.0,30.2,93,30.06,3.0,North,10.4,-,0.00,Snow,Light Snow,10,2003-01-29 11:14:00
6:21 AM,32.0,30.2,93,30.06,2.0,North,11.5,-,0.01,Snow,Light Snow,360,2003-01-29 11:21:00
6:24 AM,32.0,30.2,93,30.06,1.8,North,11.5,-,0.01,Snow,Light Snow,360,2003-01-29 11:24:00
6:53 AM,32.0,30.9,96,30.09,1.2,North,11.5,-,0.01,Snow,Light Snow,360,2003-01-29 11:53:00
7:28 AM,32.0,30.2,93,30.10,2.5,North,9.2,-,0.00,Snow,Light Snow,360,2003-01-29 12:28:00
7:46 AM,30.2,30.2,100,30.11,1.5,North,9.2,-,0.00,Snow,Light Snow,360,2003-01-29 12:46:00
7:53 AM,30.9,30.0,96,30.13,1.8,North,10.4,-,0.00,Snow,Light Snow,360,2003-01-29 12:53:00
8:08 AM,30.2,30.2,100,30.12,2.0,North,11.5,-,0.00,Snow,Light Snow,10,2003-01-29 13:08:00
8:21 AM,30.2,30.2,100,30.14,3.0,North,13.8,-,0.00,,Overcast,360,2003-01-29 13:21:00
8:27 AM,30.2,30.2,100,30.14,2.5,North,12.7,-,0.00,,Overcast,360,2003-01-29 13:27:00
8:53 AM,30.9,28.9,92,30.17,3.0,North,11.5,-,0.00,,Overcast,10,2003-01-29 13:53:00
9:31 AM,30.2,28.4,93,30.18,4.0,North,8.1,-,N/A,,Overcast,10,2003-01-29 14:31:00
9:53 AM,30.9,28.9,92,30.20,4.0,North,9.2,-,N/A,,Overcast,360,2003-01-29 14:53:00
10:53 AM,32.0,28.9,88,30.24,4.0,NNE,10.4,-,N/A,,Overcast,20,2003-01-29 15:53:00
11:05 AM,32.0,30.2,93,30.22,2.5,North,9.2,-,N/A,,Overcast,10,2003-01-29 16:05:00
11:17 AM,32.0,30.2,93,30.22,4.0,North,9.2,-,N/A,,Overcast,360,2003-01-29 16:17:00
11:29 AM,32.0,30.2,93,30.23,3.0,North,10.4,-,N/A,,Overcast,10,2003-01-29 16:29:00
11:53 AM,32.0,30.0,92,30.25,3.0,North,8.1,-,N/A,,Overcast,350,2003-01-29 16:53:00
12:25 PM,32.0,30.2,93,30.23,4.0,North,10.4,-,N/A,,Overcast,350,2003-01-29 17:25:00
12:53 PM,32.0,28.9,88,30.25,4.0,North,9.2,-,N/A,,Overcast,10,2003-01-29 17:53:00
1:53 PM,32.0,28.0,85,30.25,6.0,North,10.4,-,N/A,,Overcast,350,2003-01-29 18:53:00
2:53 PM,30.9,27.0,85,30.26,7.0,North,12.7,-,N/A,,Overcast,360,2003-01-29 19:53:00
3:53 PM,30.9,27.0,85,30.29,9.0,North,8.1,-,N/A,,Overcast,10,2003-01-29 20:53:00
4:53 PM,30.0,26.1,85,30.30,8.0,North,10.4,-,N/A,,Overcast,350,2003-01-29 21:53:00
5:53 PM,28.9,25.0,85,30.32,6.0,North,9.2,-,N/A,,Overcast,10,2003-01-29 22:53:00
6:53 PM,28.9,24.1,82,30.33,8.0,North,8.1,-,N/A,,Overcast,10,2003-01-29 23:53:00
7:53 PM,28.0,24.1,85,30.34,8.0,NNE,5.8,-,N/A,,Overcast,20,2003-01-30 00:53:00
8:53 PM,28.0,24.1,85,30.34,7.0,NE,9.2,-,N/A,,Overcast,40,2003-01-30 01:53:00
9:20 PM,28.4,24.8,86,30.31,7.0,NNE,5.8,-,N/A,,Overcast,20,2003-01-30 02:20:00
9:53 PM,28.0,23.0,81,30.35,7.0,NE,6.9,-,N/A,,Overcast,40,2003-01-30 02:53:00
10:53 PM,28.0,23.0,81,30.35,7.0,ENE,6.9,-,N/A,,Overcast,60,2003-01-30 03:53:00
11:53 PM,27.0,21.9,81,30.35,8.0,NNE,6.9,-,N/A,,Overcast,30,2003-01-30 04:53:00